The Dalles, WA

6:25 AM PDT on October 17, 2017 (GMT -0700)
Columbia Gorge Regional-The Dalles

Weather History for KDLS - February, 2013

Change the Weather History Date:

Monday, February 11, 2013

  Actual Average Record
Temperature  
Mean Temperature 42 °F -  
Max Temperature 53 °F 46 °F 62 °F (1971)
Min Temperature 30 °F 33 °F 19 °F (1981)
Degree Days  
Heating Degree Days 24    
Moisture  
Dew Point 33 °F    
Average Humidity 68    
Maximum Humidity 85    
Minimum Humidity 48    
Precipitation  
Precipitation 0.00 in - - ()
Sea Level Pressure  
Sea Level Pressure 30.27 in    
Wind  
Wind Speed 9 mph (NW)    
Max Wind Speed 20 mph    
Max Gust Speed 45 mph    
Visibility 10 miles    
Events      
Averages and records for this station are not official NWS values.
T = Trace of Precipitation, MM = Missing Value Source: NWS Daily Summary

Daily Weather History Graph

Daily Weather History Graph

Search for Another Location

Airport or City:

Trip Planner

Search our weather history database for the weather conditions in past years. The results will help you decide how hot, cold, wet, or windy it might be!

Date:

Astronomy

Feb. 11, 2013 Rise Set
Actual Time 7:12 AM PST 5:26 PM PST
Civil Twilight 6:41 AM PST 5:57 PM PST
Nautical Twilight 6:06 AM PST 6:32 PM PST
Astronomical Twilight 5:32 AM PST 7:06 PM PST
Moon 7:31 AM PST (2/11) 7:38 PM PST (2/11)
Length of Visible Light 11h 15m
Length of Day
10h 14m
Waxing Crescent, 3% of the Moon is Illuminated
Feb 11
Waxing Crescent
Feb 17
First Quarter
Feb 25
Full
Mar 4
Last Quarter
Mar 11
New

Hourly Weather History & Observations

Time (PST) Temp. Windchill Dew Point Humidity Pressure Visibility Wind Dir Wind Speed Gust Speed Precip Events Conditions
12:53 AM 34.0 °F 31.0 °F 28.9 °F 82% 30.25 in 10.0 mi South 3.5 mph - N/A   Clear
1:53 AM 32.0 °F 27.5 °F 27.0 °F 82% 30.26 in 10.0 mi East 4.6 mph - N/A   Clear
2:53 AM 36.0 °F 32.1 °F 28.9 °F 76% 30.26 in 10.0 mi West 4.6 mph - N/A   Clear
3:53 AM 33.1 °F - 28.0 °F 82% 30.26 in 10.0 mi Calm Calm - N/A   Clear
4:53 AM 30.9 °F 26.2 °F 27.0 °F 85% 30.25 in 10.0 mi SSE 4.6 mph - N/A   Clear
5:53 AM 32.0 °F 25.6 °F 27.0 °F 82% 30.25 in 10.0 mi SE 6.9 mph - N/A   Clear
6:53 AM 34.0 °F 28.8 °F 28.0 °F 79% 30.26 in 10.0 mi SSW 5.8 mph - N/A   Clear
7:53 AM 39.9 °F 34.5 °F 30.9 °F 70% 30.27 in 10.0 mi WNW 8.1 mph 17.3 mph N/A   Clear
8:53 AM 45.0 °F 39.3 °F 32.0 °F 60% 30.25 in 10.0 mi NW 11.5 mph - N/A   Clear
9:53 AM 48.0 °F - 32.0 °F 54% 30.25 in 10.0 mi WNW 11.5 mph 19.6 mph N/A   Clear
10:53 AM 51.1 °F - 32.0 °F 48% 30.25 in 10.0 mi WNW 17.3 mph 29.9 mph N/A   Clear
11:53 AM 50.0 °F - 33.1 °F 52% 30.25 in 10.0 mi NW 19.6 mph 44.9 mph N/A   Clear
12:53 PM 53.1 °F - 34.0 °F 48% 30.25 in 10.0 mi WNW 19.6 mph 25.3 mph N/A   Clear
1:53 PM 51.1 °F - 34.0 °F 52% 30.26 in 10.0 mi NW 17.3 mph 25.3 mph N/A   Clear
2:53 PM 50.0 °F - 34.0 °F 54% 30.26 in 10.0 mi NW 18.4 mph 27.6 mph N/A   Clear
3:53 PM 48.9 °F - 35.1 °F 59% 30.26 in 10.0 mi NNW 18.4 mph 25.3 mph N/A   Clear
4:53 PM 48.0 °F - 34.0 °F 58% 30.27 in 10.0 mi WNW 12.7 mph 21.9 mph N/A   Clear
5:53 PM 45.0 °F 38.2 °F 35.1 °F 68% 30.29 in 10.0 mi NW 15.0 mph - N/A   Clear
6:53 PM 44.1 °F 37.4 °F 36.0 °F 73% 30.29 in 10.0 mi NW 13.8 mph - N/A   Clear
7:53 PM 45.0 °F 39.7 °F 36.0 °F 71% 30.30 in 10.0 mi NNW 10.4 mph - N/A   Clear
8:53 PM 45.0 °F 38.9 °F 37.0 °F 74% 30.31 in 10.0 mi NW 12.7 mph 18.4 mph N/A   Clear
9:53 PM 45.0 °F 39.7 °F 37.0 °F 74% 30.30 in 10.0 mi NW 10.4 mph - N/A   Partly Cloudy
10:53 PM 45.0 °F 40.1 °F 37.9 °F 76% 30.31 in 10.0 mi NW 9.2 mph - N/A   Partly Cloudy
11:53 PM 46.9 °F - 37.9 °F 71% 30.33 in 10.0 mi NNW 8.1 mph 21.9 mph N/A   Partly Cloudy